Regional Weather Roundup
Issued by NWS

Home | Current Version | Previous Version | Graphics & Text | Print | Product List | Glossary On
Versions: 1 2 3 4 5 6 7 8 9 10 11 12 13 14 15 16 17 18 19 20 21 22 23 24 25 26 27 28 29 30 31 32 33 34 35 36 37 38 39 40 41 42 43 44 45 46 47 48 49 50
000
ASUS45 KABQ 201701
RWRNM
WEATHER ROUNDUP FOR NEW MEXICO
NATIONAL WEATHER SERVICE ALBUQUERQUE NM
1100 AM MDT SUN APR 20 2014

NOTE: "FAIR" MEANS FEW OR NO CLOUDS BELOW 12,000 FEET AGL WITH NO
       SIGNIFICANT WEATHER OR OBSTRUCTIONS TO VISION.

      THIS PRODUCT IS RELEASED AS TWO VERSIONS.  ONE VERSION NEAR
      THE TOP OF THE HOUR CONTAINING PRELIMINARY DATA FROM ALBUQUERQUE
      AND OTHER STATIONS.  A FINAL VERSION WITH ADDITIONAL DATA IS
      ISSUED ABOUT 10 MINUTES AFTER THE HOUR.

NMZ501-503-504-510>518-201800-
NORTHWEST PLATEAU/NORTHCENTRAL MOUNTAINS

CITY           SKY/WX    TMP DP  RH WIND       PRES   REMARKS
FARMINGTON     SUNNY     66  34  30 NW17      30.12F
LOS ALAMOS     MOSUNNY   55  42  60 E5        30.19S
SANTA FE       MOSUNNY   57  43  59 SW10      30.15S
TAOS           CLOUDY    52  37  58 S5        30.21S
ANGEL FIRE     CLOUDY    47  39  74 W10       30.20S

$$
NMZ402-403-502-505>509-201800-
WESTCENTRAL MOUNTAINS/SOUTHWEST MOUNTAINS

CITY           SKY/WX    TMP DP  RH WIND       PRES   REMARKS
GALLUP         SUNNY     60  38  43 SW12G17   30.22S
SILVER CITY    SUNNY     63  36  36 W5        30.22R

$$
NMZ407-409-411-412-201800-
SOUTHERN DESERTS

CITY           SKY/WX    TMP DP  RH WIND       PRES   REMARKS
DEMING         SUNNY     64  43  46 SW7       30.17S
LAS CRUCES     SUNNY     66  38  35 SW5       30.18S
T OR C         SUNNY     63  43  48 S9        30.16S

$$
NMZ519>523-201800-
CENTRAL VALLEYS/CENTRAL HIGHLANDS

CITY           SKY/WX    TMP DP  RH WIND       PRES   REMARKS
ALBUQUERQUE    PTSUNNY   60  40  47 MISG      30.16F
DOUBLE EAGLE   PTSUNNY   59  39  47 S7        30.18S
CLINES CORNERS SUNNY     56  41  57 NW15G25   30.16R
BELEN          FAIR      61  42  49 S3        30.16S
SOCORRO        NOT AVBL

$$
NMZ524>526-539-540-201800-
SOUTHCENTRAL MOUNTAINS

CITY           SKY/WX    TMP DP  RH WIND       PRES   REMARKS
RUIDOSO        NOT AVBL

$$
NMZ527>531-201800-
NORTHEAST HIGHLANDS/NORTHEAST PLAINS

CITY           SKY/WX    TMP DP  RH WIND       PRES   REMARKS
LAS VEGAS      MOSUNNY   56  41  57 VRB6      30.14S
RATON          LGT RAIN  49  44  83 NW12      30.12S
CLAYTON        PTSUNNY   65  43  44 W13       30.05S

$$
NMZ532>537-201800-
EASTCENTRAL PLAINS

CITY           SKY/WX    TMP DP  RH WIND       PRES   REMARKS
TUCUMCARI      PTSUNNY   67  47  48 NW10      30.03S
CANNON AFB     NOT AVBL
CLOVIS AIRPORT   N/A     68  46  45 W18       30.09S

$$
NMZ028-029-538-201800-
SOUTHEAST PLAINS

CITY           SKY/WX    TMP DP  RH WIND       PRES   REMARKS
ROSWELL        MOSUNNY   71  43  36 W8        30.07F
CARLSBAD       SUNNY     67  53  61 CALM      30.09F
HOBBS          MOSUNNY   66  57  72 SW7       30.12F


$$



USA.gov is the U.S. government's official web portal to all federal, state and local government web resources and services.